[[{"header":{"parameterUnit":"m.s-1","parameterCategory":1,"la1":30.2991,"la2":30.254,"lo1":-89.0895,"lo2":-89.0444,"dy":0.0017,"dx":0.0017,"nx":28,"ny":28,"refTime":"2023-10-05T09:00:00:Z","depth":0,"parameterNumber":2,"parameterNumberName":"U-component_of_WINDS"},"data":[0,0,0,0,0,0,0,0,0,0,0,0,0,0,0,0,0,0,0,0,0,0,0,0,0,0,0,0,0,0,0,0,0,0,0,0,0,0,0,0,0,0,0,0,0,0,0,0,0,0,0,0,0,0,0,0,0,0,-0.0834,-0.0835,0,-0.087,-0.0871,-0.0871,-0.0859,-0.0858,-0.0857,-0.0857,-0.0894,-0.0896,-0.0897,0,0,0,0,0,0,0,0,0,0,0,0,0,-0.0755,-0.0757,-0.0834,-0.0835,-0.0835,-0.087,-0.0871,-0.0871,-0.0859,-0.0858,-0.0857,-0.0856,-0.0894,-0.0896,-0.0898,0,0,0,0,0,0,0,0,0,0,0,0,0,-0.079,-0.0757,-0.0834,-0.0833,-0.0834,-0.087,-0.0871,-0.0871,-0.0859,-0.0858,-0.0857,-0.0856,-0.0893,-0.0895,-0.0898,-0.0937,0,0,-0.0906,-0.0907,0,0,0,0,0,0,0,0,-0.0788,-0.0793,-0.0833,-0.0833,-0.0834,-0.0859,-0.0857,-0.0893,-0.086,-0.085,-0.0857,-0.0855,-0.0883,-0.0887,-0.0896,-0.0939,-0.0941,-0.0906,-0.0908,-0.0909,-0.0909,0,0,0,0,0,0,0,-0.0786,-0.0792,-0.0848,-0.0834,-0.0834,-0.0831,-0.0835,-0.0863,-0.0873,-0.085,-0.085,-0.0854,-0.0883,-0.0894,-0.0897,-0.0941,-0.0906,-0.0908,-0.091,-0.0911,-0.1018,-0.102,0,0,0,0,0,0,-0.0783,-0.079,-0.0847,-0.085,-0.0808,-0.0834,-0.0838,-0.0852,-0.0872,-0.0874,-0.0855,-0.0853,-0.089,-0.0894,-0.0898,-0.0946,-0.0909,-0.0911,-0.0913,-0.1017,-0.1019,-0.102,0,0,0,0,0,0,-0.0782,-0.0789,-0.0846,-0.0819,-0.0827,-0.0836,-0.0852,-0.0853,-0.0864,-0.0876,-0.0877,-0.0864,-0.0889,-0.0894,-0.0928,-0.0947,-0.0912,-0.0915,-0.1016,-0.1018,-0.1019,-0.1041,0,0,0,0,0,0,-0.0779,-0.0788,-0.0803,-0.082,-0.0828,-0.0875,-0.0854,-0.0855,-0.0868,-0.0866,-0.0884,-0.0886,-0.0888,-0.0924,-0.093,-0.095,-0.0917,-0.1014,-0.1017,-0.1019,-0.1039,-0.1044,-0.1048,0,0,0,0,0,-0.0777,-0.0808,-0.0804,-0.0811,-0.0847,-0.0876,-0.0881,-0.0882,-0.087,-0.0885,-0.0893,-0.0886,-0.0943,-0.0927,-0.0934,-0.0955,-0.1013,-0.1016,-0.1019,-0.1037,-0.1043,-0.1048,0,0,0,0,0,0,-0.0794,-0.081,-0.0806,-0.0844,-0.0858,-0.0874,-0.0893,-0.0889,-0.0908,-0.0905,-0.0907,-0.0911,-0.0945,-0.0953,-0.0935,-0.0994,-0.0976,-0.0981,-0.0988,-0.0993,-0.0998,-0.0995,-0.0919,0,0,0,0,0,-0.0802,-0.0824,-0.0837,-0.0869,-0.0877,-0.0884,-0.0896,-0.0896,-0.0912,-0.0918,-0.0928,-0.0944,-0.0965,-0.098,-0.1,-0.104,-0.1043,-0.1057,-0.1062,-0.1065,-0.1069,-0.1091,-0.1097,-0.103,-0.103,-0.103,0,0,-0.0819,-0.083,-0.0844,-0.0873,-0.0884,-0.0907,-0.0889,-0.0914,-0.0931,-0.0922,-0.0954,-0.0962,-0.0979,-0.1016,-0.1032,-0.1024,-0.1089,-0.1069,-0.1072,-0.1074,-0.1094,-0.1101,-0.1106,-0.1032,-0.1031,-0.1031,0,0,-0.0862,-0.0873,-0.09,-0.0912,-0.093,-0.0934,-0.0941,-0.0957,-0.0962,-0.0994,-0.0987,-0.1007,-0.1045,-0.1057,-0.1069,-0.1115,-0.111,-0.1122,-0.1146,-0.1166,-0.1172,-0.1176,-0.1193,-0.1199,-0.1126,-0.1126,-0.1126,0,-0.0881,-0.0915,-0.0915,-0.0941,-0.0953,-0.0946,-0.0974,-0.0985,-0.1009,-0.1018,-0.1008,-0.1054,-0.1065,-0.1104,-0.1116,-0.1125,-0.1133,-0.112,-0.1171,-0.1175,-0.118,-0.1196,-0.1202,-0.1127,-0.1127,-0.1127,-0.1127,0,-0.0937,-0.0961,-0.0981,-0.1004,-0.1019,-0.1045,-0.105,-0.1065,-0.1063,-0.1069,-0.1101,-0.1114,-0.1137,-0.1146,-0.1145,-0.1185,-0.118,-0.117,-0.1152,-0.1188,-0.1203,-0.1209,-0.1129,-0.1129,-0.1128,-0.1128,0,0,-0.0992,-0.1014,-0.1022,-0.1032,-0.105,-0.1069,-0.1095,-0.1117,-0.113,-0.1146,-0.1168,-0.12,-0.1191,-0.1204,-0.1204,-0.1222,-0.1258,-0.121,-0.1211,-0.1219,-0.1303,-0.131,-0.1317,-0.1254,-0.1255,-0.1256,-0.1301,0,-0.1037,-0.1083,-0.1084,-0.1126,-0.1148,-0.1141,-0.1163,-0.1177,-0.1183,-0.1202,-0.1208,-0.1231,-0.1217,-0.1225,-0.1242,-0.125,-0.1275,-0.1247,-0.1275,-0.1276,-0.1271,-0.1325,-0.1333,-0.1375,-0.1307,-0.1308,-0.1309,0,-0.1095,-0.1112,-0.1157,-0.1172,-0.1181,-0.1202,-0.1222,-0.124,-0.1256,-0.1258,-0.1272,-0.127,-0.1296,-0.1277,-0.1314,-0.1295,-0.1306,-0.1312,-0.1313,-0.1316,-0.1295,-0.1329,-0.1388,-0.1394,-0.1318,-0.1317,-0.1317,0,-0.113,-0.1165,-0.1196,-0.1205,-0.1224,-0.1238,-0.1246,-0.1261,-0.1274,-0.1291,-0.13,-0.132,-0.1332,-0.1348,-0.1351,-0.1336,-0.1387,-0.1369,-0.1391,-0.1391,-0.1402,-0.1401,-0.1463,-0.1409,-0.1409,-0.1409,-0.1409,0,-0.118,-0.1207,-0.1213,-0.1232,-0.1262,-0.1263,-0.1293,-0.13,-0.1313,-0.1333,-0.1328,-0.1347,-0.135,-0.137,-0.1372,-0.1402,-0.1407,-0.141,-0.1411,-0.1411,-0.141,-0.1418,-0.1416,-0.1411,-0.141,-0.141,-0.141,0,-0.1225,-0.123,-0.1263,-0.1278,-0.1282,-0.1304,-0.1316,-0.1334,-0.1339,-0.1365,-0.1371,-0.1379,-0.1401,-0.1406,-0.1433,-0.1435,-0.147,-0.1468,-0.1465,-0.1465,-0.1486,-0.1484,-0.1556,-0.1566,-0.1505,-0.1506,-0.1506,0,-0.1257,-0.1277,-0.1294,-0.1307,-0.1316,-0.1337,-0.1351,-0.1352,-0.1366,-0.1385,-0.1401,-0.1423,-0.1441,-0.1478,-0.1486,-0.1507,-0.1505,-0.1529,-0.1508,-0.1507,-0.1505,-0.1504,-0.1506,-0.1533,-0.1533,-0.1534,-0.1534,0,-0.1312,-0.1313,-0.1332,-0.1352,-0.1368,-0.1384,-0.1399,-0.141,-0.1414,-0.143,-0.1453,-0.1467,-0.1494,-0.1517,-0.1537,-0.1546,-0.1541,-0.1541,-0.1547,-0.1547,-0.1545,-0.1546,-0.1476,-0.1539,-0.1539,-0.1538,-0.1538,-0.1538,-0.1351,-0.1369,-0.1384,-0.1405,-0.1417,-0.1431,-0.1448,-0.1455,-0.1475,-0.1497,-0.1497,-0.1522,-0.1537,-0.1564,-0.1573,-0.1593,-0.1586,-0.1595,-0.1597,-0.1599,-0.1601,-0.1542,-0.1597,-0.1597,-0.1597,-0.1597,-0.1597,0,-0.1406,-0.1415,-0.1435,-0.1456,-0.1473,-0.1466,-0.1482,-0.1497,-0.1519,-0.1533,-0.1551,-0.1577,-0.1599,-0.1608,-0.1629,-0.1643,-0.1641,-0.1649,-0.1648,-0.165,-0.1607,-0.1599,-0.165,-0.165,-0.165,-0.165,-0.165,-0.165,-0.1437,-0.1467,-0.147,-0.1505,-0.1514,-0.1539,-0.1548,-0.1561,-0.1572,-0.1602,-0.162,-0.1626,-0.1638,-0.166,-0.1679,-0.1681,-0.1689,-0.1697,-0.1699,-0.1658,-0.1653,-0.1648,-0.1641,-0.1699,-0.1699,-0.174,-0.174,-0.1741]},{"header":{"parameterUnit":"m.s-1","parameterCategory":1,"la1":30.2991,"la2":30.254,"lo1":-89.0895,"lo2":-89.0444,"dy":0.0017,"dx":0.0017,"nx":28,"ny":28,"refTime":"2023-10-05T09:00:00:Z","depth":0,"parameterNumber":3,"parameterNumberName":"V-component_of_WINDS"},"data":[0,0,0,0,0,0,0,0,0,0,0,0,0,0,0,0,0,0,0,0,0,0,0,0,0,0,0,0,0,0,0,0,0,0,0,0,0,0,0,0,0,0,0,0,0,0,0,0,0,0,0,0,0,0,0,0,0,0,-2.674,-2.674,0,-2.6791,-2.6792,-2.6792,-2.6775,-2.6774,-2.6773,-2.6772,-2.6822,-2.6824,-2.6826,0,0,0,0,0,0,0,0,0,0,0,0,0,-2.6622,-2.6625,-2.674,-2.674,-2.6741,-2.6791,-2.6792,-2.6792,-2.6776,-2.6774,-2.6773,-2.6772,-2.6821,-2.6824,-2.6827,0,0,0,0,0,0,0,0,0,0,0,0,0,-2.6674,-2.6625,-2.6739,-2.6739,-2.6739,-2.6791,-2.6792,-2.6793,-2.6776,-2.6774,-2.6773,-2.6771,-2.682,-2.6823,-2.6827,-2.6882,0,0,-2.6838,-2.6839,0,0,0,0,0,0,0,0,-2.6671,-2.6678,-2.6738,-2.6739,-2.6739,-2.6775,-2.6769,-2.6822,-2.6776,-2.6762,-2.6772,-2.677,-2.6807,-2.6812,-2.6825,-2.6884,-2.6886,-2.6838,-2.684,-2.6842,-2.6843,0,0,0,0,0,0,0,-2.6667,-2.6675,-2.676,-2.6739,-2.674,-2.6734,-2.674,-2.6779,-2.6793,-2.6763,-2.6762,-2.6768,-2.6807,-2.6822,-2.6826,-2.6887,-2.6838,-2.6841,-2.6843,-2.6845,-2.6991,-2.6993,0,0,0,0,0,0,-2.6664,-2.6673,-2.6758,-2.6761,-2.67,-2.6738,-2.6744,-2.6765,-2.6793,-2.6795,-2.677,-2.6767,-2.6816,-2.6822,-2.6828,-2.6892,-2.6842,-2.6845,-2.6847,-2.6989,-2.6992,-2.6994,0,0,0,0,0,0,-2.6661,-2.6672,-2.6756,-2.6717,-2.6727,-2.6742,-2.6766,-2.6767,-2.6782,-2.6798,-2.68,-2.6782,-2.6815,-2.6823,-2.6868,-2.6894,-2.6846,-2.685,-2.6987,-2.699,-2.6993,-2.7023,0,0,0,0,0,0,-2.6658,-2.6671,-2.6693,-2.6717,-2.6729,-2.6797,-2.6767,-2.6769,-2.6788,-2.6785,-2.681,-2.6812,-2.6815,-2.6863,-2.6872,-2.6898,-2.6852,-2.6985,-2.6989,-2.6992,-2.702,-2.7026,-2.7032,0,0,0,0,0,-2.6654,-2.6699,-2.6694,-2.6704,-2.6757,-2.6799,-2.6805,-2.6808,-2.679,-2.6812,-2.6822,-2.6811,-2.689,-2.6868,-2.6877,-2.6905,-2.6983,-2.6988,-2.6992,-2.7017,-2.7025,-2.7032,0,0,0,0,0,0,-2.6676,-2.6702,-2.6697,-2.6752,-2.6773,-2.6796,-2.6823,-2.6817,-2.6843,-2.6839,-2.6841,-2.6846,-2.6893,-2.6903,-2.6878,-2.6958,-2.6934,-2.694,-2.695,-2.6958,-2.6964,-2.6959,-2.6855,0,0,0,0,0,-2.6687,-2.672,-2.6741,-2.6786,-2.6798,-2.6809,-2.6827,-2.6827,-2.6849,-2.6857,-2.6871,-2.6892,-2.6921,-2.694,-2.6968,-2.7021,-2.7025,-2.7045,-2.7051,-2.7056,-2.7061,-2.7088,-2.7097,-2.7007,-2.7007,-2.7007,0,0,-2.6711,-2.6729,-2.6749,-2.6791,-2.6808,-2.684,-2.6816,-2.6852,-2.6875,-2.6862,-2.6906,-2.6917,-2.694,-2.6989,-2.7012,-2.7,-2.7087,-2.7061,-2.7065,-2.7067,-2.7093,-2.7102,-2.7109,-2.701,-2.7009,-2.7009,0,0,-2.677,-2.6788,-2.6827,-2.6845,-2.687,-2.6877,-2.6887,-2.691,-2.6917,-2.6961,-2.6952,-2.6979,-2.703,-2.7046,-2.7061,-2.7125,-2.7116,-2.7134,-2.7166,-2.7193,-2.72,-2.7206,-2.7228,-2.7235,-2.7139,-2.7139,-2.714,0,-2.6795,-2.6845,-2.6848,-2.6884,-2.6902,-2.6893,-2.6932,-2.6949,-2.6982,-2.6994,-2.698,-2.7043,-2.7058,-2.711,-2.7125,-2.7138,-2.7148,-2.7131,-2.7199,-2.7205,-2.7211,-2.7231,-2.724,-2.7141,-2.7141,-2.7141,-2.7141,0,-2.6874,-2.6908,-2.6937,-2.697,-2.6991,-2.7029,-2.7036,-2.7057,-2.7056,-2.7063,-2.7107,-2.7125,-2.7155,-2.7168,-2.7167,-2.722,-2.7211,-2.7199,-2.7173,-2.7221,-2.7241,-2.7249,-2.7144,-2.7143,-2.7143,-2.7142,0,0,-2.6948,-2.6983,-2.6993,-2.7007,-2.7035,-2.7061,-2.7097,-2.7128,-2.7145,-2.7168,-2.7197,-2.724,-2.7228,-2.7245,-2.7245,-2.7268,-2.7316,-2.7252,-2.7253,-2.7262,-2.7374,-2.7383,-2.7392,-2.7311,-2.7312,-2.7313,-2.7372,0,-2.7008,-2.7074,-2.7077,-2.7136,-2.7166,-2.7158,-2.7189,-2.7209,-2.7217,-2.7243,-2.7251,-2.7281,-2.7263,-2.7273,-2.7296,-2.7306,-2.7338,-2.7302,-2.7336,-2.7338,-2.733,-2.7402,-2.7412,-2.7466,-2.7379,-2.7381,-2.7382,0,-2.7088,-2.7114,-2.7175,-2.7197,-2.721,-2.7239,-2.7266,-2.7292,-2.7313,-2.7317,-2.7336,-2.7332,-2.7368,-2.7342,-2.739,-2.7365,-2.7379,-2.7386,-2.7388,-2.739,-2.7362,-2.7405,-2.7483,-2.7491,-2.7394,-2.7393,-2.7392,0,-2.7134,-2.7184,-2.7227,-2.724,-2.7267,-2.7287,-2.7299,-2.7319,-2.7337,-2.736,-2.7372,-2.7399,-2.7414,-2.7435,-2.7438,-2.7419,-2.7485,-2.746,-2.7488,-2.7488,-2.7502,-2.75,-2.7582,-2.7513,-2.7513,-2.7513,-2.7513,0,-2.72,-2.7238,-2.7248,-2.7275,-2.7316,-2.7319,-2.736,-2.737,-2.7388,-2.7414,-2.7409,-2.7434,-2.7437,-2.7463,-2.7466,-2.7504,-2.7511,-2.7514,-2.7514,-2.7514,-2.7513,-2.7522,-2.7518,-2.7515,-2.7514,-2.7514,-2.7514,0,-2.7258,-2.7267,-2.7313,-2.7335,-2.7342,-2.7371,-2.7389,-2.7413,-2.7421,-2.7455,-2.7463,-2.7474,-2.7504,-2.7509,-2.7545,-2.7546,-2.7591,-2.7588,-2.7585,-2.7584,-2.761,-2.7607,-2.77,-2.7711,-2.7636,-2.7637,-2.7637,0,-2.7299,-2.7328,-2.7353,-2.7372,-2.7385,-2.7414,-2.7432,-2.7436,-2.7455,-2.7481,-2.7502,-2.7531,-2.7555,-2.7603,-2.7613,-2.7639,-2.7636,-2.7666,-2.7639,-2.7638,-2.7634,-2.7632,-2.7634,-2.7671,-2.7672,-2.7672,-2.7673,0,-2.7371,-2.7374,-2.7401,-2.7429,-2.7452,-2.7474,-2.7495,-2.751,-2.7516,-2.7538,-2.7569,-2.7587,-2.7623,-2.7651,-2.7677,-2.7688,-2.7681,-2.7681,-2.7689,-2.7688,-2.7684,-2.7685,-2.7597,-2.7679,-2.7678,-2.7678,-2.7678,-2.7677,-2.7421,-2.7446,-2.7467,-2.7497,-2.7513,-2.7533,-2.7557,-2.7567,-2.7593,-2.7623,-2.7624,-2.7657,-2.7676,-2.7711,-2.7723,-2.7748,-2.7738,-2.7749,-2.7752,-2.7754,-2.7756,-2.7682,-2.7753,-2.7753,-2.7753,-2.7752,-2.7752,0,-2.7491,-2.7504,-2.7532,-2.7562,-2.7585,-2.7578,-2.76,-2.762,-2.765,-2.7669,-2.7692,-2.7726,-2.7754,-2.7766,-2.7793,-2.781,-2.7808,-2.7817,-2.7815,-2.7817,-2.7764,-2.7754,-2.7819,-2.7819,-2.7819,-2.7819,-2.7819,-2.7819,-2.753,-2.7571,-2.7576,-2.7624,-2.7637,-2.767,-2.7684,-2.7701,-2.7716,-2.7755,-2.7778,-2.7787,-2.7802,-2.783,-2.7854,-2.7857,-2.7866,-2.7877,-2.7878,-2.7828,-2.7821,-2.7815,-2.7806,-2.788,-2.788,-2.7929,-2.793,-2.793]}]]